Location: Newark
(34.9500°N, 139.9667°E)
Time: 14:56:12
(UTC+00:00)

Tiros 1 - Visible Passes

Search period start: 07 December 2019 00:00
Search period end: 17 December 2019 00:00
Orbit: 630 x 664 km, 48.4° (Epoch: 06 December)

Date Brightness Start Highest point End Pass type
(mag) Time Alt. Az. Time Alt. Az. Time Alt. Az.
07 Dec 8.0 20:43:14 10° SW 20:47:50 54° SE 20:52:23 10° ENE visible
08 Dec 9.6 19:28:33 10° S 19:32:01 20° SE 19:35:27 10° E visible
09 Dec 8.0 19:53:14 10° SSW 19:57:48 49° SE 20:02:20 10° ENE visible
10 Dec 9.6 18:42:01 18° SE 18:42:01 18° SE 18:45:15 10° E visible
10 Dec 7.1 20:19:47 14° WSW 20:23:49 72° NW 20:28:30 10° NE visible
11 Dec 8.2 19:08:15 43° ESE 19:08:15 43° ESE 19:12:16 10° ENE visible
11 Dec 7.8 20:45:59 11° W 20:50:03 36° NNW 20:54:23 10° NE visible
12 Dec 7.1 19:34:07 73° N 19:34:07 73° N 19:38:29 10° NE visible
13 Dec 10.2 18:22:01 11° ENE 18:22:01 11° ENE 18:22:11 10° ENE visible
13 Dec 7.7 19:59:44 38° NW 19:59:59 38° NNW 20:04:23 10° NE visible
14 Dec 9.6 18:47:28 16° NE 18:47:28 16° NE 18:48:27 10° NE visible
14 Dec 8.5 20:25:09 21° NW 20:26:25 23° NNW 20:30:12 10° NNE visible
15 Dec 9.2 19:12:44 20° NNE 19:12:44 20° NNE 19:14:23 10° NE visible
15 Dec 8.9 20:50:25 12° NW 20:53:05 17° N 20:56:11 10° NNE visible
16 Dec 8.9 19:37:54 21° N 19:37:54 21° N 19:40:12 10° NE visible
